KD5OH Weather Reports


time (UTC)temp
C
wind
direction
speed
KPH
gust
KPH
rain 1hr
cm
rain 24hr
cm
rain mn
cm
humidity
%
barometer
mb
20260505130129 17 209 0.0 1.6 0.00 0.00 0.00 34 1014.9
20260505124625 17 213 0.0 4.8 0.00 0.00 0.00 31 1014.6
20260505123138 17 248 0.0 1.6 0.00 0.00 0.00 31 1014.6
20260505121633 17 309 3.2 8.0 0.00 0.00 0.00 32 1014.5
20260505120125 17 251 0.0 0.0 0.00 0.00 0.00 33 1014.4
20260505114657 17 9 0.0 0.0 0.00 0.00 0.00 31 1014.1
20260505113132 17 297 0.0 0.0 0.00 0.00 0.00 31 1014.1
20260505111623 17 297 0.0 1.6 0.00 0.00 0.00 32 1014.2
20260505110138 17 297 0.0 0.0 0.00 0.00 0.00 32 1014.2
20260505101638 18 137 1.6 4.8 0.00 0.00 0.00 29 1013.8
20260505100130 18 256 0.0 0.0 0.00 0.00 0.00 28 1013.5
20260505094647 18 163 1.6 4.8 0.00 0.00 0.00 28 1013.3
20260505093158 18 16 1.6 9.7 0.00 0.00 0.00 30 1013.5
20260505091633 17 46 3.2 6.4 0.00 0.00 0.00 31 1013.5
20260505090125 17 336 0.0 3.2 0.00 0.00 0.00 32 1013.8
20260505084636 17 253 0.0 4.8 0.00 0.00 0.00 30 1013.8
20260505083132 17 80 0.0 4.8 0.00 0.00 0.00 31 1013.9
20260505081624 18 34 1.6 3.2 0.00 0.00 0.00 30 1014.0
20260505080141 18 260 1.6 4.8 0.00 0.00 0.00 30 1014.1
20260505074632 17 352 3.2 6.4 0.00 0.00 0.00 31 1014.0
20260505073128 17 36 4.8 8.0 0.00 0.00 0.00 30 1013.6
20260505071638 17 354 4.8 8.0 0.00 0.00 0.00 30 1013.7
20260505070132 17 1 4.8 9.7 0.00 0.00 0.00 29 1013.7
20260505064626 18 2 3.2 9.7 0.00 0.00 0.00 28 1013.5
20260505063138 18 301 4.8 9.7 0.00 0.00 0.00 26 1013.8
20260505061634 18 288 3.2 9.7 0.00 0.00 0.00 26 1014.0
20260505060126 18 300 3.2 8.0 0.00 0.00 0.00 25 1013.7
20260505054624 19 300 3.2 8.0 0.00 0.00 0.00 25 1013.9
20260505053137 20 296 3.2 8.0 0.00 0.00 0.00 23 1013.8
20260505051630 20 275 3.2 12.9 0.00 0.00 0.00 22 1014.0
20260505050127 19 306 0.0 3.2 0.00 0.00 0.00 25 1013.9
20260505041627 20 272 0.0 0.0 0.00 0.00 0.00 22 1014.2
20260505040124 20 270 0.0 0.0 0.00 0.00 0.00 21 1013.8
20260505034638 21 272 0.0 3.2 0.00 0.00 0.00 21 1013.7
20260505033131 22 267 3.2 9.7 0.00 0.00 0.00 19 1013.5
20260505031649 22 234 8.0 17.7 0.00 0.00 0.00 18 1013.4
20260505030139 22 253 11.3 19.3 0.00 0.00 0.00 18 1013.2
20260505024655 22 221 8.0 12.9 0.00 0.00 0.00 20 1013.0
20260505023125 22 225 4.8 9.7 0.00 0.00 0.00 20 1012.9
20260505021621 22 163 3.2 4.8 0.00 0.00 0.00 20 1012.8
20260505020134 22 162 1.6 4.8 0.00 0.00 0.00 20 1012.5
20260505014625 22 203 3.2 8.0 0.00 0.00 0.00 19 1012.6
20260505013139 23 219 3.2 11.3 0.00 0.00 0.00 17 1012.1
20260505011652 23 227 8.0 12.9 0.00 0.00 0.00 16 1012.3
20260505010126 24 235 8.0 16.1 0.00 0.00 0.00 15 1012.6
20260505004638 24 201 4.8 12.9 0.00 0.00 0.00 14 1012.6
20260505003152 25 225 6.4 11.3 0.00 0.00 0.00 13 1012.7
20260505001625 25 275 9.7 19.3 0.00 0.00 0.00 12 1012.8
20260505000138 25 235 12.9 25.7 0.00 0.00 0.00 12 1012.8
20260504234632 25 263 12.9 27.4 0.00 0.00 0.00 12 1012.7
20260504233123 26 248 1.6 8.0 0.00 0.00 0.00 16 1012.7
20260504231634 25 109 1.6 12.9 0.00 0.00 0.00 16 1012.6
20260504230131 25 97 6.4 12.9 0.00 0.00 0.00 17 1012.7
20260504224623 25 154 4.8 11.3 0.00 0.00 0.00 17 1012.9
20260504223138 26 190 3.2 14.5 0.00 0.00 0.00 17 1013.1
20260504221630 26 132 6.4 9.7 0.00 0.00 0.00 17 1013.4
20260504220125 25 170 9.7 16.1 0.00 0.00 0.00 18 1014.0
20260504214658 25 90 6.4 12.9 0.00 0.00 0.00 19 1014.3
20260504213129 24 234 8.0 14.5 0.00 0.00 0.00 19 1014.5
20260504211645 24 184 4.8 9.7 0.00 0.00 0.00 18 1015.0
20260504210157 23 229 6.4 12.9 0.00 0.00 0.00 19 1015.2
20260504204632 23 251 6.4 14.5 0.00 0.00 0.00 19 1015.5
20260504203123 23 213 11.3 16.1 0.00 0.00 0.00 21 1015.5
20260504201635 23 262 9.7 14.5 0.00 0.00 0.00 21 1015.8
20260504200131 23 240 3.2 12.9 0.00 0.00 0.00 20 1015.9
20260504194644 23 296 0.0 6.4 0.00 0.00 0.00 20 1016.0
20260504193139 23 40 0.0 9.7 0.00 0.00 0.00 21 1015.9
20260504191633 23 266 3.2 9.7 0.00 0.00 0.00 22 1016.1
20260504190127 23 9 1.6 12.9 0.00 0.00 0.00 22 1016.1
20260504184636 22 218 6.4 12.9 0.00 0.00 0.00 22 1016.5
20260504183126 22 86 1.6 11.3 0.00 0.00 0.00 24 1016.7
20260504181621 22 67 3.2 8.0 0.00 0.00 0.00 24 1016.9
20260504180132 22 277 1.6 8.0 0.00 0.00 0.00 24 1017.1
20260504174648 22 266 3.2 11.3 0.00 0.00 0.00 25 1017.0
20260504173141 22 303 1.6 12.9 0.00 0.00 0.00 26 1017.1
20260504171652 22 266 4.8 11.3 0.00 0.00 0.00 27 1017.1
20260504170127 21 283 9.7 12.9 0.00 0.00 0.00 27 1017.0
20260504160139 20 109 3.2 4.8 0.00 0.00 0.00 33 1017.5
20260504150123 19 256 1.6 6.4 0.00 0.00 0.00 40 1017.2
20260504140156 14 220 1.6 3.2 0.00 0.00 0.00 65 1017.4